Location: Sungai Dangang
(2.7500°N, 113.8333°E)
Time: 05:53:20
(UTC+00:00)

SL-4 R/B - Pass Details

Date: 16 May 2021
Orbit: 427 x 663 km, 51.6° (Epoch: 16 June)

Event Time Altitude Azimuth Distance (km) Brightness Sun altitude
Rises 12:27:36 0° 328° (NNW) 2,874 6.5 -28.6°
Reaches altitude 10° 12:29:52 10° 330° (NNW) 1,999 5.5 -29.1°
Enters shadow 12:32:34 35° 339° (NNW) 1,034 3.6 -29.7°
